TELKOM 3S

Last updated on Thu Jul 03 2025 00:02:47 GMT+0000 (Coordinated Universal Time)

1 41944U 17007A 25183.59215988 -.00000355 00000+0 00000+0 0 9995 2 41944 0.0166 310.0226 0002354 148.8894 153.1287 1.00270770 30630
UTC large
Height (km)
Speed (km/s)
/
Latitude / Longitude
Inclination (degrees)
Orbital Period (minutes)
Azimuth
Elevation
Range (km)
Doppler Factor

Next 0 passes for location: London (51.5072 / 0.1276)

Sorry there are no passes over London.